Starlink 31388

operational
NORAD ID: 59565 Int'l Des: 2024-076 Owner: SPXS Country: US Constellation: starlink
LEOCIRCULAR

About Starlink 31388

Description loading...

Live Position

Loading 3D Globe...

Upcoming Passes

Altitude History

Altitude vs Time

uPlot chart will show altitude changes over time

Two-Line Element Set

1 59565U 24076B 25351.65240804 -.00000573 00000-0 -11268-4 0 9993
2 59565 43.0051 112.5435 0002135 292.0191 68.0434 15.27577960 93951
Epoch: Dec 17, 2025 • Age: 31 hours

Current Status

Altitude 488.4 km
Velocity 7.62 km/s
Sub-Earth Point -26.65°S, 2.07°E
Launch Date Apr 23, 2024
Age 1.6 years
Type internet

Technical Details

Classification Payload
Mass 730.00 kg
Dry Mass 700.00 kg
Total Mass 730.00 kg
Length 0.30 m
Diameter 4.10 m
Span 29.00 m
Shape Box + pan
Manufacturer SPXS
Bus Type Starlink V2M
Phase Status In Orbit
Owner/State SPXS/US

Large Constellations

Loading constellations...